User: anonymous
Location: Brno
(49.2000°N, 16.6330°E)
Time: 08:23:22
(UTC+02:00)
Language:

Cosmos 1459 Rocket - Orbit

View from above orbital plane
View from above orbital plane
View from above satellite
View from above satellite

Ground track
Ground track

The orbit data is extracted from the following two-line orbital elements,

1 14059U 83042B   14293.80778368  .00000149  00000-0  13077-3 0  4149
2 14059 082.9734 062.1153 0043858 112.0041 355.1457 13.78467945582064
Epoch (UTC): 20 October 2014 19:23:12
Eccentricity: 0.0043858
inclination: 82.9734°
perigee height: 937 km
apogee height: 1001 km
right ascension of ascending node: 62.1153°
argument of perigee: 112.0041°
revolutions per day: 13.78467945
mean anomaly at epoch: 355.1457°
orbit number at epoch: 58206

The dashed part of the orbit path shows where the satellite is in the earth's shadow,  

DLR